Regional Weather Roundup
Issued by NWS

Home | Current Version | Previous Version | Text Only | Print | Product List | Glossary On
Versions: 1 2 3 4 5 6 7 8 9 10 11 12 13 14 15 16 17 18 19 20 21 22 23 24 25 26 27 28 29 30 31 32 33 34 35 36 37 38 39 40 41 42 43 44 45 46 47 48 49 50
000
ASUS42 KKEY 300510
RWRKEY

FLORIDA REGIONAL WEATHER ROUNDUP FOR THE FLORIDA KEYS
NATIONAL WEATHER SERVICE KEY WEST FLORIDA
100 AM EDT TUE JUN 30 2015

...SOUTH FLORIDA AND THE KEYS...

CITY           SKY/WX    TMP DP  RH WIND       PRES   REMARKS
FORT MYERS     CLEAR     77  73  87 S5        30.10F
SW REGIONAL AP CLEAR     75  71  87 SE6       30.11F
NAPLES         CLEAR     78  72  81 E5        30.11F
MIAMI          MOCLDY    78  73  84 CALM      30.11F
WEST KENDALL   PTCLDY    75  73  93 NW3       30.12F
HOMESTEAD      PTCLDY    77  74  91 NW2       30.12S
MARATHON       MOCLDY    85  76  74 S8        30.12F HX  94
BOCA CHICA NAS MOCLDY    85  74  69 SE12      30.12F HX  92
KEY WEST INTL  MOCLDY    85  78  80 SE10      30.12F HX  96

...INTERNATIONAL WEATHER...

CITY           SKY/WX    TMP DP  RH WIND       PRES   REMARKS
NASSAU BAHAMAS MOCLDY    81  75  83 S3        30.14R
CANCUN MEXICO  PTCLDY    82  79  89 E8        30.10R HX  93
COZUMEL MEXICO MOCLDY    77  77 100 CALM      30.09R

ADJACENT COASTAL WATERS...

STATION/POSITION TIME  SKY/WX   TEMP    WIND        PRES    WAVE
                                AIR SEA DIR/SP/G            HT/PER
                 (UTC)          (F)     (DEG/KT/KT) (MB)    (FT/S)
PULASKI SHOAL LI 0400            85      70/  7/  8 1019.8R
SAND KEY         0450            85     130/ 13/ 15 1020.1S
SOMBRERO KEY     0400            85     130/  6/  7 1021.1R
LONG KEY         0400            86 91  180/  7/ 10 1021.0R
MOLASSES REEF    0400            85 85  190/  8/  9 1020.1R
FOWEY ROCKS      NOT AVBL

$$


USA.gov is the U.S. government's official web portal to all federal, state and local government web resources and services.